PLI421 SPJC-SPHY

Flight info

Callsign PLI421
Flight time N/A
Altitude 37000
Route VUPUD DCT UTGOL
Aircraft B721/M-SDFGHRWY/C

Departure

Time 2026-05-06 15:13
Airport Jorge Chávez International Airport (SPJC)

Arrival

Time N/A
Airport Andahuaylas Airport (SPHY)
Time Latitude Longitude Altitude Speed Heading
2026-05-06 14:55 -12.03172 -77.11261 97 ft 0 kts 244°
2026-05-06 15:02 -12.03171 -77.11259 97 ft 2 kts 244°
2026-05-06 15:02 -12.03165 -77.11244 97 ft 2 kts 244°
2026-05-06 15:02 -12.03158 -77.11231 97 ft 2 kts 244°
2026-05-06 15:02 -12.03153 -77.11216 97 ft 2 kts 278°
2026-05-06 15:03 -12.03160 -77.11202 97 ft 1 kts 327°
2026-05-06 15:03 -12.03126 -77.11221 97 ft 5 kts 333°
2026-05-06 15:03 -12.03109 -77.11230 97 ft 0 kts 333°
2026-05-06 15:08 -12.03103 -77.11233 97 ft 4 kts 333°
2026-05-06 15:08 -12.03027 -77.11270 97 ft 18 kts 334°
2026-05-06 15:09 -12.02904 -77.11332 97 ft 18 kts 334°
2026-05-06 15:09 -12.02778 -77.11395 94 ft 21 kts 334°
2026-05-06 15:09 -12.02638 -77.11465 90 ft 23 kts 335°
2026-05-06 15:09 -12.02486 -77.11542 88 ft 24 kts 334°
2026-05-06 15:10 -12.02319 -77.11625 78 ft 28 kts 335°
2026-05-06 15:10 -12.02140 -77.11710 77 ft 27 kts 332°
2026-05-06 15:10 -12.01985 -77.11787 77 ft 16 kts 334°
2026-05-06 15:10 -12.01885 -77.11840 77 ft 6 kts 335°
2026-05-06 15:11 -12.01844 -77.11837 77 ft 6 kts 40°
2026-05-06 15:11 -12.01812 -77.11803 77 ft 6 kts 20°
2026-05-06 15:11 -12.01754 -77.11820 77 ft 12 kts 334°
2026-05-06 15:11 -12.01649 -77.11867 76 ft 19 kts 333°
2026-05-06 15:12 -12.01566 -77.11872 74 ft 3 kts 52°
2026-05-06 15:12 -12.01551 -77.11852 74 ft 9 kts 57°
2026-05-06 15:12 -12.01531 -77.11764 74 ft 12 kts 126°
2026-05-06 15:12 -12.01687 -77.11680 77 ft 52 kts 155°
2026-05-06 15:13 -12.02272 -77.11388 97 ft 128 kts 155°
2026-05-06 15:13 -12.03222 -77.10927 353 ft 156 kts 157°
2026-05-06 15:13 -12.04242 -77.10477 943 ft 158 kts 156°
2026-05-06 15:13 -12.05250 -77.10010 1532 ft 162 kts 158°
2026-05-06 15:14 -12.06448 -77.09878 1838 ft 180 kts 176°
2026-05-06 15:14 -12.07766 -77.09782 2296 ft 189 kts 174°
2026-05-06 15:14 -12.09130 -77.09638 2771 ft 195 kts 172°
2026-05-06 15:14 -12.10530 -77.09435 3226 ft 202 kts 170°
2026-05-06 15:15 -12.11955 -77.09199 3621 ft 209 kts 169°
2026-05-06 15:15 -12.13447 -77.08913 4045 ft 214 kts 166°
2026-05-06 15:15 -12.14854 -77.08385 4484 ft 215 kts 157°
2026-05-06 15:15 -12.16297 -77.07797 4898 ft 218 kts 157°
2026-05-06 15:16 -12.17735 -77.07172 5287 ft 220 kts 153°
2026-05-06 15:16 -12.19059 -77.06321 5668 ft 222 kts 142°
2026-05-06 15:16 -12.20262 -77.05231 6096 ft 232 kts 134°
2026-05-06 15:16 -12.21375 -77.03944 6678 ft 240 kts 128°
2026-05-06 15:17 -12.22396 -77.02523 7281 ft 246 kts 123°
2026-05-06 15:17 -12.23341 -77.01022 7949 ft 247 kts 121°
2026-05-06 15:17 -12.24230 -76.99472 8578 ft 249 kts 119°
2026-05-06 15:17 -12.25113 -76.97835 9005 ft 259 kts 118°
2026-05-06 15:18 -12.25970 -76.96179 9564 ft 262 kts 117°
2026-05-06 15:18 -12.26829 -76.94472 10079 ft 266 kts 117°
2026-05-06 15:18 -12.27693 -76.92722 10596 ft 269 kts 116°
2026-05-06 15:18 -12.28550 -76.90968 11107 ft 271 kts 116°
2026-05-06 15:19 -12.29410 -76.89195 11572 ft 279 kts 116°
2026-05-06 15:19 -12.30307 -76.87339 12093 ft 294 kts 116°
2026-05-06 15:19 -12.31265 -76.85352 12624 ft 309 kts 116°
2026-05-06 15:19 -12.32255 -76.83301 13136 ft 327 kts 116°
2026-05-06 15:20 -12.33276 -76.81187 13645 ft 345 kts 116°
2026-05-06 15:20 -12.34399 -76.78862 14176 ft 362 kts 116°
2026-05-06 15:20 -12.35563 -76.76453 14699 ft 378 kts 116°
2026-05-06 15:20 -12.36780 -76.73933 15223 ft 393 kts 116°
2026-05-06 15:21 -12.38050 -76.71286 15748 ft 406 kts 114°
2026-05-06 15:21 -12.38927 -76.68432 16266 ft 416 kts 107°
2026-05-06 15:21 -12.40093 -76.65632 16784 ft 426 kts 115°
2026-05-06 15:21 -12.41435 -76.62753 17310 ft 437 kts 116°
2026-05-06 15:22 -12.42812 -76.59902 17821 ft 446 kts 116°
2026-05-06 15:22 -12.44255 -76.56927 18344 ft 455 kts 116°
2026-05-06 15:22 -12.45717 -76.53967 18852 ft 462 kts 119°
2026-05-06 15:22 -12.47479 -76.51070 19372 ft 468 kts 122°
2026-05-06 15:23 -12.49173 -76.48086 19891 ft 474 kts 119°
2026-05-06 15:23 -12.50750 -76.45040 20402 ft 479 kts 117°
2026-05-06 15:23 -12.52295 -76.41874 20921 ft 484 kts 116°
2026-05-06 15:23 -12.53807 -76.38715 21431 ft 488 kts 116°
2026-05-06 15:24 -12.55333 -76.35523 21943 ft 490 kts 116°
2026-05-06 15:24 -12.56877 -76.32307 22455 ft 491 kts 116°
2026-05-06 15:24 -12.58427 -76.29085 22967 ft 491 kts 116°
2026-05-06 15:24 -12.59981 -76.25862 23480 ft 491 kts 116°
2026-05-06 15:25 -12.61529 -76.22649 23991 ft 490 kts 116°
2026-05-06 15:25 -12.63059 -76.19469 24498 ft 489 kts 116°
2026-05-06 15:25 -12.64572 -76.16326 25000 ft 487 kts 116°
2026-05-06 15:25 -12.66091 -76.13168 25505 ft 486 kts 116°
2026-05-06 15:26 -12.67610 -76.10008 26013 ft 484 kts 116°
2026-05-06 15:26 -12.69111 -76.06885 26516 ft 482 kts 116°
2026-05-06 15:26 -12.70597 -76.03793 27017 ft 479 kts 116°
2026-05-06 15:26 -12.72073 -76.00719 27516 ft 476 kts 116°
2026-05-06 15:27 -12.73570 -75.97600 28026 ft 473 kts 116°
2026-05-06 15:27 -12.75042 -75.94513 28533 ft 470 kts 116°
2026-05-06 15:27 -12.76480 -75.91472 29035 ft 466 kts 116°
2026-05-06 15:27 -12.77930 -75.88398 29545 ft 462 kts 116°
2026-05-06 15:28 -12.79354 -75.85377 30051 ft 458 kts 116°
2026-05-06 15:28 -12.80756 -75.82404 30553 ft 454 kts 116°
2026-05-06 15:28 -12.82140 -75.79468 31053 ft 449 kts 116°
2026-05-06 15:28 -12.83532 -75.76515 31561 ft 443 kts 116°
2026-05-06 15:29 -12.84874 -75.73666 32057 ft 438 kts 116°
2026-05-06 15:29 -12.86224 -75.70798 32561 ft 432 kts 116°
2026-05-06 15:29 -12.87543 -75.67999 33060 ft 426 kts 116°
2026-05-06 15:29 -12.88842 -75.65239 33558 ft 419 kts 116°
2026-05-06 15:30 -12.90121 -75.62519 34056 ft 411 kts 116°
2026-05-06 15:30 -12.91364 -75.59876 34547 ft 403 kts 116°
2026-05-06 15:30 -12.92599 -75.57250 35044 ft 395 kts 116°
2026-05-06 15:30 -12.93797 -75.54702 35534 ft 385 kts 116°
2026-05-06 15:31 -12.94975 -75.52193 36023 ft 368 kts 116°
2026-05-06 15:31 -12.96054 -75.49898 36460 ft 336 kts 116°
2026-05-06 15:31 -12.97057 -75.47761 36382 ft 323 kts 116°
2026-05-06 15:32 -12.99073 -75.43465 34977 ft 333 kts 116°
2026-05-06 15:32 -13.00104 -75.41267 34355 ft 336 kts 116°
2026-05-06 15:32 -13.01147 -75.39042 33744 ft 338 kts 116°
2026-05-06 15:32 -13.02191 -75.36815 33177 ft 339 kts 116°
2026-05-06 15:33 -13.03221 -75.34618 32708 ft 338 kts 115°
2026-05-06 15:33 -13.04263 -75.32394 32301 ft 334 kts 115°
2026-05-06 15:33 -13.05276 -75.30231 31913 ft 330 kts 115°
2026-05-06 15:33 -13.06283 -75.28082 31502 ft 327 kts 115°
2026-05-06 15:34 -13.07282 -75.25949 31076 ft 326 kts 115°
2026-05-06 15:34 -13.08282 -75.23811 30816 ft 325 kts 115°
2026-05-06 15:34 -13.09283 -75.21672 30685 ft 325 kts 115°
2026-05-06 15:34 -13.10305 -75.19488 30624 ft 334 kts 115°
2026-05-06 15:35 -13.11350 -75.17253 30580 ft 345 kts 115°
2026-05-06 15:35 -13.12405 -75.14997 30541 ft 355 kts 115°
2026-05-06 15:35 -13.14663 -75.10167 30476 ft 376 kts 115°
2026-05-06 15:36 -13.17024 -75.05114 30428 ft 395 kts 115°
2026-05-06 15:36 -13.19512 -74.99786 30431 ft 413 kts 115°
2026-05-06 15:37 -13.20783 -74.97063 30718 ft 413 kts 115°
2026-05-06 15:37 -13.22053 -74.94341 31150 ft 410 kts 115°
2026-05-06 15:37 -13.23295 -74.91679 31555 ft 407 kts 115°
2026-05-06 15:37 -13.24548 -74.88993 31913 ft 406 kts 115°
2026-05-06 15:38 -13.25801 -74.86303 32165 ft 407 kts 116°
2026-05-06 15:38 -13.27038 -74.83649 32342 ft 409 kts 115°
2026-05-06 15:38 -13.28310 -74.80920 32515 ft 412 kts 115°
2026-05-06 15:38 -13.29575 -74.78204 32713 ft 414 kts 115°
2026-05-06 15:39 -13.30786 -74.75479 32922 ft 414 kts 111°
2026-05-06 15:39 -13.31786 -74.72623 33137 ft 415 kts 108°
2026-05-06 15:39 -13.32672 -74.69720 33342 ft 416 kts 107°
2026-05-06 15:39 -13.33522 -74.66801 33533 ft 417 kts 107°
2026-05-06 15:40 -13.34363 -74.63905 33714 ft 419 kts 107°
2026-05-06 15:40 -13.35216 -74.60986 33889 ft 420 kts 107°
2026-05-06 15:40 -13.36925 -74.55183 33688 ft 409 kts 107°
2026-05-06 15:41 -13.37761 -74.52351 33583 ft 402 kts 107°
2026-05-06 15:41 -13.38584 -74.49561 33479 ft 396 kts 107°
2026-05-06 15:41 -13.39387 -74.46835 33373 ft 388 kts 107°
2026-05-06 15:41 -13.40175 -74.44163 33266 ft 381 kts 107°
2026-05-06 15:42 -13.40952 -74.41523 33159 ft 373 kts 107°
2026-05-06 15:42 -13.41712 -74.38938 33051 ft 365 kts 107°
2026-05-06 15:42 -13.42450 -74.36428 32944 ft 358 kts 107°
2026-05-06 15:42 -13.43176 -74.33961 32836 ft 350 kts 107°
2026-05-06 15:43 -13.43889 -74.31533 32727 ft 342 kts 107°
2026-05-06 15:43 -13.44580 -74.29182 32619 ft 335 kts 107°
2026-05-06 15:43 -13.45257 -74.26876 32509 ft 327 kts 107°
2026-05-06 15:43 -13.45924 -74.24602 32398 ft 319 kts 107°
2026-05-06 15:44 -13.46573 -74.22392 32221 ft 314 kts 107°
2026-05-06 15:44 -13.47212 -74.20209 32010 ft 310 kts 107°
2026-05-06 15:44 -13.47847 -74.18043 31798 ft 305 kts 107°
2026-05-06 15:44 -13.48466 -74.15930 31589 ft 301 kts 107°
2026-05-06 15:45 -13.49079 -74.13845 31378 ft 296 kts 107°
2026-05-06 15:45 -13.49692 -74.11781 31165 ft 292 kts 106°
2026-05-06 15:45 -13.50305 -74.09747 30942 ft 285 kts 106°
2026-05-06 15:45 -13.50904 -74.07782 30717 ft 276 kts 106°
2026-05-06 15:46 -13.51486 -74.05891 30502 ft 271 kts 105°
2026-05-06 15:46 -13.52070 -74.04009 30284 ft 267 kts 105°
2026-05-06 15:46 -13.52650 -74.02158 30061 ft 263 kts 105°
2026-05-06 15:46 -13.53218 -74.00357 29830 ft 259 kts 104°
2026-05-06 15:47 -13.53796 -73.98538 29581 ft 259 kts 104°
2026-05-06 15:47 -13.54377 -73.96716 29362 ft 262 kts 103°
2026-05-06 15:47 -13.54963 -73.94876 29187 ft 266 kts 103°
2026-05-06 15:47 -13.55562 -73.92999 28967 ft 272 kts 102°
2026-05-06 15:48 -13.56174 -73.91081 28749 ft 278 kts 102°
2026-05-06 15:48 -13.56778 -73.89131 28538 ft 284 kts 101°
2026-05-06 15:48 -13.57376 -73.87114 28324 ft 291 kts 101°
2026-05-06 15:48 -13.57968 -73.85040 28089 ft 299 kts 101°
2026-05-06 15:49 -13.58558 -73.82918 27820 ft 311 kts 101°
2026-05-06 15:49 -13.59166 -73.80682 27559 ft 323 kts 102°
2026-05-06 15:49 -13.59793 -73.78352 27294 ft 335 kts 102°
2026-05-06 15:49 -13.60436 -73.75945 27028 ft 347 kts 103°
2026-05-06 15:50 -13.61097 -73.73463 26762 ft 359 kts 104°
2026-05-06 15:50 -13.61779 -73.70895 26493 ft 370 kts 104°
2026-05-06 15:50 -13.62479 -73.68265 26225 ft 380 kts 105°
2026-05-06 15:50 -13.63183 -73.65522 25951 ft 391 kts 104°
2026-05-06 15:51 -13.63807 -73.62710 25667 ft 400 kts 95°
2026-05-06 15:51 -13.63553 -73.59797 25394 ft 407 kts 74°
2026-05-06 15:51 -13.62276 -73.57107 25107 ft 413 kts 53°
2026-05-06 15:51 -13.60145 -73.54988 24575 ft 418 kts 33°
2026-05-06 15:52 -13.57484 -73.53776 24002 ft 408 kts 14°
2026-05-06 15:52 -13.54679 -73.53277 23446 ft 402 kts
2026-05-06 15:52 -13.51811 -73.52945 22875 ft 399 kts
2026-05-06 15:52 -13.48989 -73.52661 22311 ft 397 kts
2026-05-06 15:53 -13.46193 -73.52391 21750 ft 395 kts
2026-05-06 15:53 -13.43426 -73.52126 21192 ft 393 kts
2026-05-06 15:53 -13.40677 -73.51577 20627 ft 391 kts 18°
2026-05-06 15:53 -13.38255 -73.50245 20066 ft 389 kts 40°
2026-05-06 15:54 -13.36513 -73.48105 19502 ft 377 kts 62°
2026-05-06 15:54 -13.35730 -73.45551 18936 ft 361 kts 85°
2026-05-06 15:54 -13.35871 -73.42950 18366 ft 348 kts 101°
2026-05-06 15:54 -13.36651 -73.40583 17796 ft 336 kts 113°
2026-05-06 15:55 -13.37685 -73.38396 17225 ft 326 kts 120°
2026-05-06 15:55 -13.38827 -73.36413 16652 ft 307 kts 122°
2026-05-06 15:55 -13.39922 -73.34596 16091 ft 291 kts 122°
2026-05-06 15:55 -13.41037 -73.32847 15618 ft 280 kts 123°
2026-05-06 15:56 -13.42155 -73.31142 15467 ft 278 kts 124°
2026-05-06 15:56 -13.43308 -73.29524 15415 ft 272 kts 127°
2026-05-06 15:56 -13.44489 -73.27962 15390 ft 266 kts 130°
2026-05-06 15:56 -13.45736 -73.26550 15417 ft 247 kts 134°
2026-05-06 15:57 -13.47037 -73.25478 15414 ft 219 kts 150°
2026-05-06 15:57 -13.48344 -73.24792 15374 ft 195 kts 156°
2026-05-06 15:57 -13.49576 -73.24252 15343 ft 180 kts 158°
2026-05-06 15:57 -13.50764 -73.23755 15401 ft 182 kts 158°
2026-05-06 15:58 -13.51970 -73.23404 15437 ft 169 kts 185°
2026-05-06 15:58 -13.53050 -73.23834 15410 ft 161 kts 210°
2026-05-06 15:58 -13.54036 -73.24423 15387 ft 159 kts 211°
2026-05-06 15:58 -13.55008 -73.25023 15345 ft 160 kts 212°
2026-05-06 15:59 -13.55999 -73.25655 15188 ft 165 kts 211°
2026-05-06 15:59 -13.57003 -73.26294 14953 ft 167 kts 213°
2026-05-06 15:59 -13.58005 -73.26950 14644 ft 168 kts 213°
2026-05-06 15:59 -13.58998 -73.27617 14411 ft 166 kts 212°
2026-05-06 16:00 -13.60017 -73.28252 14164 ft 167 kts 211°
2026-05-06 16:00 -13.61050 -73.28860 13886 ft 167 kts 210°
2026-05-06 16:00 -13.62077 -73.29494 13647 ft 166 kts 212°
2026-05-06 16:00 -13.63075 -73.30131 13393 ft 165 kts 211°
2026-05-06 16:01 -13.64049 -73.30785 13164 ft 164 kts 213°
2026-05-06 16:01 -13.65060 -73.31423 12869 ft 166 kts 211°
2026-05-06 16:01 -13.66059 -73.32036 12637 ft 164 kts 212°
2026-05-06 16:01 -13.67036 -73.32677 12449 ft 162 kts 212°
2026-05-06 16:02 -13.68030 -73.33305 12171 ft 166 kts 213°
2026-05-06 16:02 -13.69044 -73.33961 11958 ft 170 kts 212°
2026-05-06 16:02 -13.70068 -73.34613 11736 ft 170 kts 212°
2026-05-06 16:02 -13.71031 -73.35233 11735 ft 153 kts 212°
2026-05-06 16:03 -13.71950 -73.35802 11860 ft 156 kts 212°
2026-05-06 16:03 -13.72970 -73.36467 11905 ft 180 kts 216°
2026-05-06 16:03 -13.73691 -73.37515 12425 ft 177 kts 261°
2026-05-06 16:03 -13.73724 -73.38824 12873 ft 183 kts 278°
2026-05-06 16:04 -13.73505 -73.40155 13381 ft 186 kts 280°
2026-05-06 16:04 -13.73103 -73.41466 13855 ft 191 kts 291°
2026-05-06 16:04 -13.72579 -73.42817 14265 ft 201 kts 292°
2026-05-06 16:04 -13.71979 -73.44239 14528 ft 223 kts 295°
2026-05-06 16:05 -13.71267 -73.45720 15050 ft 231 kts 297°
2026-05-06 16:05 -13.70508 -73.47253 15584 ft 239 kts 296°
2026-05-06 16:05 -13.69712 -73.48811 16207 ft 240 kts 299°
2026-05-06 16:05 -13.68905 -73.50333 16821 ft 236 kts 299°
2026-05-06 16:06 -13.68049 -73.51852 17255 ft 242 kts 300°
2026-05-06 16:06 -13.67184 -73.53424 17704 ft 247 kts 296°
2026-05-06 16:06 -13.66389 -73.55032 18000 ft 245 kts 298°
2026-05-06 16:06 -13.65540 -73.56634 18136 ft 248 kts 297°
2026-05-06 16:07 -13.64677 -73.58209 18319 ft 247 kts 301°
2026-05-06 16:07 -13.63763 -73.59762 18264 ft 253 kts 301°
2026-05-06 16:07 -13.62752 -73.61347 18184 ft 259 kts 308°
2026-05-06 16:07 -13.61303 -73.62492 18140 ft 262 kts 344°
2026-05-06 16:08 -13.59479 -73.62448 18222 ft 259 kts 18°
2026-05-06 16:08 -13.57900 -73.61508 18321 ft 257 kts 41°
2026-05-06 16:08 -13.56622 -73.60148 18279 ft 262 kts 51°
2026-05-06 16:08 -13.55517 -73.58549 18162 ft 268 kts 60°
2026-05-06 16:09 -13.54694 -73.56794 18181 ft 266 kts 67°
2026-05-06 16:09 -13.53880 -73.55030 18038 ft 272 kts 63°
2026-05-06 16:09 -13.52978 -73.53165 17630 ft 289 kts 62°
2026-05-06 16:09 -13.51860 -73.51341 17342 ft 303 kts 53°
2026-05-06 16:10 -13.50540 -73.49545 17171 ft 312 kts 53°
2026-05-06 16:10 -13.49200 -73.47664 17032 ft 317 kts 53°
2026-05-06 16:10 -13.47920 -73.45721 16673 ft 327 kts 59°
2026-05-06 16:10 -13.46801 -73.43610 16384 ft 332 kts 65°
2026-05-06 16:11 -13.45920 -73.41310 16088 ft 338 kts 72°
2026-05-06 16:11 -13.45354 -73.38875 15661 ft 345 kts 81°
2026-05-06 16:11 -13.45132 -73.36316 15242 ft 353 kts 90°
2026-05-06 16:11 -13.45420 -73.33765 15298 ft 346 kts 102°
2026-05-06 16:12 -13.46188 -73.31417 15614 ft 333 kts 115°
2026-05-06 16:12 -13.47381 -73.29313 15707 ft 329 kts 124°
2026-05-06 16:12 -13.48767 -73.27354 15481 ft 335 kts 127°
2026-05-06 16:12 -13.50408 -73.25552 15242 ft 339 kts 140°
2026-05-06 16:13 -13.52450 -73.24284 15371 ft 330 kts 159°
2026-05-06 16:13 -13.54663 -73.23972 15937 ft 307 kts 189°
2026-05-06 16:13 -13.56710 -73.24822 15296 ft 329 kts 218°
2026-05-06 16:13 -13.58467 -73.26505 14503 ft 343 kts 225°
2026-05-06 16:14 -13.60038 -73.28091 14458 ft 268 kts 223°
2026-05-06 16:14 -13.61295 -73.29146 14270 ft 200 kts 213°
2026-05-06 16:14 -13.62445 -73.29816 13506 ft 180 kts 210°
2026-05-06 16:14 -13.63493 -73.30449 12949 ft 167 kts 210°
2026-05-06 16:15 -13.64469 -73.31059 12697 ft 159 kts 211°
2026-05-06 16:15 -13.65428 -73.31658 12562 ft 154 kts 210°
2026-05-06 16:15 -13.66350 -73.32231 12434 ft 149 kts 212°
2026-05-06 16:15 -13.67249 -73.32812 12224 ft 152 kts 211°
2026-05-06 16:16 -13.68156 -73.33382 12118 ft 144 kts 210°
2026-05-06 16:16 -13.68744 -73.33808 11889 ft 148 kts 230°
2026-05-06 16:16 -13.69027 -73.34175 11646 ft 165 kts 231°
2026-05-06 16:16 -13.69072 -73.34262 11399 ft 181 kts 248°